• In Uzbekistan
  • List of Countries
  • For 7 days
  • Water Temperature
  • Satellite Maps
  • Weather Map
  • Weather Widgets
  • user-avatar
    Login

    Hourly Weather Recife

    Today, 26 April, Friday

    Time Temperature Precipitation Wind Pressure Humidity
    00:00 +28°C° 0 mm 4 mps 758 mmHg 83%
    01:00 +28°C° 0 mm 3 mps 758 mmHg 84%
    02:00 +28°C° 0.1 mm 4 mps 758 mmHg 84%
    03:00 +28°C° 0.1 mm 4 mps 758 mmHg 85%
    04:00 +27°C° 0 mm 4 mps 758 mmHg 84%
    05:00 +27°C° 0.1 mm 4 mps 758 mmHg 85%
    06:00 +27°C° 0.1 mm 4 mps 758 mmHg 85%
    07:00 +27°C° 0.1 mm 4 mps 758 mmHg 86%
    08:00 +29°C° 0 mm 4 mps 758 mmHg 79%
    09:00 +30°C° 0 mm 5 mps 759 mmHg 73%
    10:00 +33°C° 0 mm 5 mps 759 mmHg 66%
    11:00 +33°C° 0 mm 5 mps 759 mmHg 63%
    12:00 +34°C° 0 mm 5 mps 758 mmHg 60%
    13:00 +34°C° 0 mm 5 mps 758 mmHg 57%
    14:00 +34°C° 0 mm 5 mps 758 mmHg 58%
    15:00 +33°C° 0 mm 5 mps 757 mmHg 60%
    16:00 +33°C° 0 mm 5 mps 757 mmHg 62%
    17:00 +32°C° 0 mm 4 mps 757 mmHg 67%
    18:00 +30°C° 0 mm 4 mps 757 mmHg 72%
    19:00 +28°C° 0 mm 4 mps 757 mmHg 77%
    20:00 +28°C° 0 mm 4 mps 758 mmHg 78%
    21:00 +28°C° 0 mm 3 mps 758 mmHg 79%
    22:00 +28°C° 0 mm 3 mps 758 mmHg 80%
    23:00 +28°C° 0 mm 3 mps 758 mmHg 81%

    Tomorrow, 27 April, Saturday

    Time Temperature Precipitation Wind Pressure Humidity
    00:00 +28°C° 0 mm 3 mps 759 mmHg 81%
    01:00 +27°C° 0 mm 3 mps 759 mmHg 82%
    02:00 +27°C° 0.1 mm 3 mps 758 mmHg 82%
    03:00 +27°C° 0.1 mm 2 mps 758 mmHg 83%
    04:00 +27°C° 0.1 mm 2 mps 757 mmHg 84%
    05:00 +27°C° 0.1 mm 2 mps 758 mmHg 84%
    06:00 +27°C° 0.1 mm 2 mps 758 mmHg 83%
    07:00 +27°C° 0.1 mm 2 mps 758 mmHg 83%
    08:00 +29°C° 0 mm 2 mps 758 mmHg 77%
    09:00 +30°C° 0 mm 3 mps 759 mmHg 71%
    10:00 +33°C° 0 mm 3 mps 759 mmHg 64%
    11:00 +33°C° 0 mm 3 mps 759 mmHg 62%
    12:00 +34°C° 0 mm 4 mps 758 mmHg 59%
    13:00 +34°C° 0 mm 4 mps 758 mmHg 57%
    14:00 +34°C° 0 mm 4 mps 758 mmHg 59%
    15:00 +33°C° 0 mm 4 mps 757 mmHg 61%
    16:00 +33°C° 0 mm 4 mps 756 mmHg 63%
    17:00 +32°C° 0 mm 4 mps 757 mmHg 68%
    18:00 +30°C° 0 mm 4 mps 757 mmHg 73%
    19:00 +28°C° 0 mm 3 mps 757 mmHg 78%
    20:00 +28°C° 0 mm 3 mps 757 mmHg 79%
    21:00 +28°C° 0 mm 3 mps 758 mmHg 81%
    22:00 +28°C° 0 mm 3 mps 758 mmHg 82%
    23:00 +28°C° 0 mm 3 mps 758 mmHg 83%

    Day after tomorrow, 28 April, Sunday

    Time Temperature Precipitation Wind Pressure Humidity
    00:00 +28°C° 0 mm 3 mps 758 mmHg 83%
    01:00 +28°C° 0 mm 3 mps 758 mmHg 84%
    02:00 +28°C° 0 mm 3 mps 757 mmHg 84%
    03:00 +27°C° 0 mm 3 mps 757 mmHg 84%
    04:00 +27°C° 0 mm 3 mps 756 mmHg 85%
    05:00 +27°C° 0 mm 3 mps 756 mmHg 84%
    06:00 +27°C° 0 mm 3 mps 757 mmHg 83%
    07:00 +28°C° 0 mm 3 mps 757 mmHg 82%
    08:00 +28°C° 0.1 mm 4 mps 757 mmHg 79%
    09:00 +29°C° 0.1 mm 4 mps 758 mmHg 76%
    10:00 +30°C° 0.1 mm 4 mps 759 mmHg 73%
    11:00 +32°C° 0.2 mm 4 mps 758 mmHg 69%
    12:00 +33°C° 0.2 mm 4 mps 758 mmHg 65%
    13:00 +33°C° 0.2 mm 4 mps 757 mmHg 62%
    14:00 +33°C° 0.9 mm 4 mps 757 mmHg 63%
    15:00 +33°C° 0.9 mm 4 mps 756 mmHg 65%
    16:00 +33°C° 0.9 mm 4 mps 756 mmHg 66%
    17:00 +32°C° 1 mm 4 mps 756 mmHg 71%
    18:00 +29°C° 1 mm 4 mps 756 mmHg 76%
    19:00 +28°C° 1 mm 3 mps 757 mmHg 80%
    20:00 +28°C° 0.6 mm 3 mps 757 mmHg 81%
    21:00 +28°C° 0.6 mm 3 mps 758 mmHg 82%
    22:00 +28°C° 0.6 mm 2 mps 758 mmHg 82%
    23:00 +28°C° 0.1 mm 2 mps 758 mmHg 83%

    29 April, Monday

    Time Temperature Precipitation Wind Pressure Humidity
    00:00 +28°C° 0.1 mm 2 mps 757 mmHg 84%
    01:00 +28°C° 0.1 mm 1 mps 757 mmHg 84%
    02:00 +27°C° 0 mm 1 mps 756 mmHg 85%
    03:00 +27°C° 0 mm 1 mps 756 mmHg 86%
    04:00 +27°C° 0 mm 1 mps 756 mmHg 88%
    05:00 +27°C° 0.3 mm 1 mps 756 mmHg 88%
    06:00 +27°C° 0.3 mm 1 mps 756 mmHg 88%
    07:00 +27°C° 0.3 mm 1 mps 757 mmHg 88%
    08:00 +29°C° 0.2 mm 1 mps 757 mmHg 80%
    09:00 +30°C° 0.2 mm 1 mps 758 mmHg 73%
    10:00 +32°C° 0.2 mm 1 mps 758 mmHg 65%
    11:00 +34°C° 0 mm 2 mps 758 mmHg 62%
    12:00 +34°C° 0 mm 2 mps 757 mmHg 59%
    13:00 +35°C° 0 mm 3 mps 757 mmHg 56%
    14:00 +35°C° 0 mm 3 mps 756 mmHg 58%
    15:00 +34°C° 0 mm 4 mps 756 mmHg 59%
    16:00 +34°C° 0 mm 4 mps 755 mmHg 60%
    17:00 +33°C° 0 mm 3 mps 756 mmHg 65%
    18:00 +30°C° 0 mm 3 mps 756 mmHg 70%
    19:00 +29°C° 0 mm 2 mps 757 mmHg 75%
    20:00 +29°C° 0 mm 2 mps 757 mmHg 77%
    21:00 +29°C° 0 mm 2 mps 758 mmHg 78%
    22:00 +28°C° 0 mm 2 mps 758 mmHg 79%
    23:00 +28°C° 0 mm 1 mps 758 mmHg 80%

    30 April, Tuesday

    Time Temperature Precipitation Wind Pressure Humidity
    00:00 +28°C° 0 mm 1 mps 758 mmHg 81%
    01:00 +28°C° 0 mm 1 mps 757 mmHg 82%
    02:00 +28°C° 0 mm 1 mps 757 mmHg 83%
    03:00 +27°C° 0 mm 1 mps 757 mmHg 84%
    04:00 +27°C° 0 mm 1 mps 757 mmHg 85%
    05:00 +27°C° 1.7 mm 1 mps 757 mmHg 86%
    06:00 +27°C° 1.7 mm 1 mps 757 mmHg 87%
    07:00 +27°C° 1.7 mm 1 mps 758 mmHg 88%
    08:00 +29°C° 0.1 mm 1 mps 758 mmHg 80%
    09:00 +30°C° 0.1 mm 1 mps 759 mmHg 72%
    10:00 +32°C° 0.1 mm 2 mps 759 mmHg 64%
    11:00 +34°C° 0 mm 2 mps 758 mmHg 61%
    12:00 +34°C° 0 mm 3 mps 758 mmHg 59%
    13:00 +35°C° 0 mm 3 mps 757 mmHg 56%
    14:00 +35°C° 0 mm 4 mps 757 mmHg 58%
    15:00 +34°C° 0 mm 4 mps 756 mmHg 61%
    16:00 +34°C° 0 mm 4 mps 756 mmHg 63%
    17:00 +32°C° 0 mm 4 mps 756 mmHg 69%
    18:00 +30°C° 0 mm 3 mps 757 mmHg 75%
    19:00 +29°C° 0 mm 3 mps 757 mmHg 81%
    20:00 +29°C° 0.1 mm 3 mps 758 mmHg 82%
    21:00 +29°C° 0.1 mm 3 mps 758 mmHg 84%
    22:00 +28°C° 0.1 mm 3 mps 758 mmHg 86%
    23:00 +28°C° 0.2 mm 2 mps 758 mmHg 87%

    1 May, Wednesday

    Time Temperature Precipitation Wind Pressure Humidity
    00:00 +28°C° 0.2 mm 2 mps 758 mmHg 87%
    01:00 +28°C° 0.2 mm 2 mps 757 mmHg 88%
    02:00 +28°C° 0.6 mm 2 mps 757 mmHg 88%
    03:00 +27°C° 0.6 mm 2 mps 757 mmHg 89%
    04:00 +27°C° 0.6 mm 1 mps 757 mmHg 89%
    05:00 +27°C° 0 mm 1 mps 757 mmHg 88%
    06:00 +28°C° 0 mm 1 mps 758 mmHg 88%
    07:00 +28°C° 0 mm 1 mps 758 mmHg 87%
    08:00 +29°C° 0.3 mm 2 mps 758 mmHg 81%
    09:00 +30°C° 0.3 mm 3 mps 759 mmHg 76%
    10:00 +33°C° 0.3 mm 3 mps 759 mmHg 70%
    11:00 +33°C° 0.1 mm 4 mps 758 mmHg 67%
    12:00 +34°C° 0.1 mm 4 mps 758 mmHg 63%
    13:00 +35°C° 0.1 mm 4 mps 757 mmHg 59%
    14:00 +34°C° 0 mm 4 mps 757 mmHg 61%
    15:00 +34°C° 0 mm 4 mps 757 mmHg 62%
    16:00 +34°C° 0 mm 4 mps 756 mmHg 63%
    17:00 +31°C° 0.1 mm 3 mps 757 mmHg 69%
    18:00 +30°C° 0.1 mm 3 mps 757 mmHg 75%
    19:00 +29°C° 0.1 mm 2 mps 757 mmHg 81%
    20:00 +29°C° 0.9 mm 3 mps 758 mmHg 82%
    21:00 +28°C° 0.9 mm 3 mps 758 mmHg 84%
    22:00 +28°C° 0.9 mm 3 mps 758 mmHg 86%
    23:00 +28°C° 0.2 mm 3 mps 758 mmHg 86%
    Show more